This demonstration page uses our WeatherBlox Daily Observations layout. Learn more.

Left ArrowRight Arrow

Hourly Observations for April 14, 2018

Temp ( °F °C ) Dew Point ( °F °C ) Humidity (%) Winds ( mph kmh ) Pressure ( in mb ) Visibility ( mi km ) Precip ( " mm )
12:11 am 00:11 Cloudy with Snow 27 -3 25 -4 93 93 NNW 32 52 29.80 1009 1 1 0.00 0.00
12:45 am 00:45 Windy with Snow Likely 27 -3 25 -4 93 93 NNW 31 50 29.80 1009 1 1 0.00 0.00
12:56 am 00:56 Windy with Snow Likely 26 -3.3 24 -4.4 92 92 NNW 31 50 29.73 1007 1 1 0.00 0.03
1:06 am 01:06 Cloudy with Snow 27 -3 25 -4 93 93 N 35 56 29.80 1009 1 1 0.00 0.03
1:31 am 01:31 Cloudy with Snow 27 -3 25 -4 93 93 N 36 57 29.80 1009 1 1 0.00 0.00
1:56 am 01:56 Cloudy with Snow 25 -3.9 24 -4.4 96 96 N 35 56 29.73 1007 1 1 0.00 0.03
2:29 am 02:29 Cloudy with Snow 25 -4 25 -4 100 100 N 35 56 29.83 1010 1 1 0.00 0.00
2:40 am 02:40 Cloudy with Heavy Snow 25 -4 25 -4 100 100 N 33 54 29.83 1010 0 0 0.00 0.03
2:51 am 02:51 Cloudy with Snow 25 -4 25 -4 100 100 N 36 57 29.83 1010 1 1 0.00 0.00
2:56 am 02:56 Cloudy with Snow 25 -3.9 23 -5 92 92 N 36 57 29.75 1008 1 1 0.00 0.03
3:08 am 03:08 Cloudy with Snow 25 -4 23 -5 93 93 N 36 57 29.83 1010 1 1 0.00 0.03
3:15 am 03:15 Cloudy with Heavy Snow 25 -4 23 -5 93 93 N 37 59 29.83 1010 0 0 0.00 0.00
3:25 am 03:25 Cloudy with Snow 25 -4 23 -5 93 93 N 36 57 29.83 1010 1 1 0.00 0.00
3:56 am 03:56 Cloudy with Snow 25 -3.9 23 -5 92 92 NNW 33 54 29.75 1008 1 1 0.00 0.03
4:07 am 04:07 Very Windy with Snow Likely 25 -4 23 -5 93 93 N 39 63 29.83 1010 1 1 0.00 0.03
4:56 am 04:56 Very Windy with Snow Likely 25 -3.9 23 -5 92 92 N 38 61 29.78 1008 1 1 0.00 0.03
5:33 am 05:33 Cloudy with Snow 25 -4 23 -5 93 93 N 35 56 29.85 1011 1 1 0.00 0.00
5:56 am 05:56 Cloudy with Heavy Snow 24 -4.4 23 -5 96 96 N 37 59 29.80 1009 0 0 0.00 0.03
6:05 am 06:05 Cloudy with Snow 25 -4 23 -5 93 93 N 36 57 29.88 1012 1 1 0.00 0.00
6:14 am 06:14 Cloudy with Snow 25 -4 23 -5 93 93 N 36 57 29.88 1012 1 1 0.01 0.25
6:24 am 06:24 Cloudy with Snow 25 -4 23 -5 93 93 N 37 59 29.88 1012 1 1 0.01 0.25
6:56 am 06:56 Cloudy with Heavy Snow 24 -4.4 23 -5 96 96 N 38 61 29.84 1010 0 0 0.01 0.25
7:04 am 07:04 Cloudy with Heavy Snow 25 -4 23 -5 93 93 N 36 57 29.94 1014 0 0 0.00 0.03
7:42 am 07:42 Cloudy with Heavy Snow 25 -4 23 -5 93 93 N 48 78 29.94 1014 0 0 0.00 0.03
7:56 am 07:56 Cloudy with Heavy Snow 25 -3.9 23 -5 92 92 N 43 69 29.87 1012 0 0 0.00 0.03
8:56 am 08:56 Cloudy with Snow 26 -3.3 24 -4.4 92 92 N 31 50 29.91 1013 0 0 0.01 0.25
9:07 am 09:07 Cloudy with Snow 27 -3 25 -4 93 93 N 32 52 29.97 1015 1 1 0.00 0.03
9:25 am 09:25 Windy with Snow Likely 27 -3 25 -4 93 93 N 30 48 29.97 1015 1 1 0.00 0.00
9:35 am 09:35 Windy with Snow Likely 27 -3 25 -4 93 93 N 31 50 29.97 1015 1 1 0.00 0.00
9:45 am 09:45 Windy with Snow Likely 27 -3 25 -4 93 93 N 33 54 29.97 1015 1 2 0.00 0.00
9:56 am 09:56 Windy with Snow Likely 27 -2.8 24 -4.4 89 89 N 33 54 29.93 1014 1 2 0.01 0.25
10:19 am 10:19 Windy with Snow Likely 27 -3 23 -5 86 86 N 33 54 29.97 1015 2 2 0.00 0.00
10:48 am 10:48 Windy with Snow Likely 27 -3 25 -4 93 93 N 32 52 30.03 1017 3 4 0.00 0.03
10:56 am 10:56 Windy with Snow Likely 27 -2.8 24 -4.4 89 89 N 33 54 29.96 1015 3 5 0.00 0.03
11:09 am 11:09 Windy with Snow Likely 28 -2 25 -4 86 86 N 35 56 30.00 1016 2 3 0.00 0.00
11:18 am 11:18 Windy with Snow Likely 28 -2 25 -4 86 86 N 37 59 30.00 1016 1 2 0.00 0.03
11:35 am 11:35 Windy with Snow Likely 28 -2 25 -4 86 86 N 35 56 30.00 1016 1 2 0.00 0.00
11:43 am 11:43 Windy with Snow Likely 28 -2 23 -5 80 80 N 36 57 30.00 1016 2 3 0.00 0.00
11:53 am 11:53 Windy with Snow Likely 28 -2 23 -5 80 80 N 33 54 30.03 1017 6 10 0.00 0.00
11:56 am 11:56 Windy with Snow Likely 28 -2.2 23 -5 81 81 N 31 50 29.99 1016 6 10 0.00 0.03
12:49 pm 12:49 Windy with Snow Likely 28 -2 23 -5 80 80 N 33 54 30.03 1017 2 3 0.00 0.00
12:56 pm 12:56 Windy with Snow Likely 28 -2.2 23 -5 81 81 N 37 59 30.01 1016 2 2 0.00 0.03
1:00 pm 13:00 Windy with Snow Likely 28 -2 23 -5 80 80 N 35 56 30.03 1017 3 5 0.00 0.03
1:56 pm 13:56 Windy with Snow Likely 29 -1.7 24 -4.4 82 82 N 30 48 30.03 1017 8 13 0.00 0.03
2:39 pm 14:39 Windy with Snow Likely 28 -2 23 -5 80 80 N 26 43 30.09 1019 6 10 0.00 0.00
2:47 pm 14:47 Windy with Snow Likely 28 -2 25 -4 86 86 N 24 39 30.09 1019 4 6 0.00 0.00
2:56 pm 14:56 Windy with Snow Likely 28 -2.2 24 -4.4 85 85 NNW 24 39 30.06 1018 4 6 0.00 0.03
3:03 pm 15:03 Windy with Snow Likely 28 -2 25 -4 86 86 N 31 50 30.09 1019 4 6 0.00 0.03
3:49 pm 15:49 Windy with Snow Likely 28 -2 23 -5 80 80 NNW 29 46 30.09 1019 2 3 0.00 0.00
3:56 pm 15:56 Windy with Snow Likely 28 -2.2 24 -4.4 85 85 NNW 31 50 30.07 1018 2 3 0.00 0.03
4:05 pm 16:05 Windy with Snow Likely 27 -3 23 -5 86 86 N 28 44 30.12 1020 2 2 0.00 0.00
4:15 pm 16:15 Windy with Snow Likely 27 -3 23 -5 86 86 N 30 48 30.12 1020 1 2 0.00 0.00
4:25 pm 16:25 Windy with Snow Likely 27 -3 23 -5 86 86 N 31 50 30.12 1020 1 2 0.00 0.03
4:33 pm 16:33 Windy with Snow Likely 27 -3 23 -5 86 86 N 29 46 30.15 1021 1 1 0.00 0.00
4:45 pm 16:45 Windy with Snow Likely 27 -3 23 -5 86 86 N 25 41 30.15 1021 1 2 0.00 0.03
4:50 pm 16:50 Windy with Snow Likely 27 -3 23 -5 86 86 N 29 46 30.15 1021 2 2 0.00 0.03
5:14 pm 17:14 Windy with Snow Likely 27 -3 21 -6 80 80 N 26 43 30.15 1021 2 3 0.00 0.03
5:20 pm 17:20 Windy with Snow Likely 27 -3 23 -5 86 86 N 31 50 30.15 1021 3 5 0.00 0.03
5:56 pm 17:56 Windy with Snow Likely 26 -3.3 22 -5.6 84 84 N 30 48 30.11 1020 6 10 0.00 0.03
6:19 pm 18:19 Windy with Snow Likely 27 -3 21 -6 80 80 N 31 50 30.18 1022 2 2 0.00 0.00
6:25 pm 18:25 Windy with Snow Likely 27 -3 21 -6 80 80 N 29 46 30.18 1022 1 1 0.00 0.03
6:33 pm 18:33 Windy with Snow Likely 27 -3 23 -5 86 86 N 25 41 30.18 1022 1 2 0.00 0.00
6:41 pm 18:41 Windy with Snow Likely 27 -3 21 -6 80 80 N 24 39 30.21 1023 2 2 0.00 0.00
6:56 pm 18:56 Windy with Snow Likely 25 -3.9 22 -5.6 88 88 N 28 44 30.15 1021 1 2 0.00 0.03
7:05 pm 19:05 Windy with Snow Likely 25 -4 21 -6 86 86 N 28 44 30.21 1023 2 2 0.00 0.00
7:16 pm 19:16 Windy with Snow Likely 25 -4 21 -6 86 86 N 28 44 30.21 1023 3 4 0.00 0.03
7:28 pm 19:28 Windy with Snow Likely 25 -4 21 -6 86 86 N 33 54 30.21 1023 2 3 0.00 0.03
7:35 pm 19:35 Windy with Snow Likely 25 -4 21 -6 86 86 N 32 52 30.21 1023 1 2 0.00 0.03
7:46 pm 19:46 Windy with Snow Likely 25 -4 21 -6 86 86 N 23 37 30.21 1023 1 2 0.00 0.03
7:56 pm 19:56 Windy with Snow Likely 24 -4.4 21 -6.1 88 88 N 26 43 30.16 1022 1 2 0.00 0.03
8:05 pm 20:05 Windy with Snow Likely 25 -4 21 -6 86 86 N 24 39 30.21 1023 1 1 0.00 0.00
8:12 pm 20:12 Windy with Snow Likely 25 -4 21 -6 86 86 N 28 44 30.21 1023 1 2 0.00 0.03
8:20 pm 20:20 Windy with Snow Likely 25 -4 21 -6 86 86 N 26 43 30.21 1023 1 2 0.00 0.03
8:26 pm 20:26 Windy with Snow Likely 25 -4 21 -6 86 86 N 29 46 30.21 1023 3 5 0.00 0.03
8:56 pm 20:56 Windy with Snow Likely 24 -4.4 20 -6.7 84 84 N 26 43 30.18 1022 8 13 0.00 0.03
9:47 pm 21:47 Mostly Cloudy with Light Snow 23 -5 19 -7 86 86 N 23 37 30.27 1025 7 11 0.00 0.03
9:56 pm 21:56 Mostly Cloudy with Light Snow 23 -5 20 -6.7 88 88 N 22 35 30.19 1022 9 14 0.00 0.03
10:56 pm 22:56 Mostly Cloudy 23 -5 19 -7.2 85 85 N 22 35 30.19 1022 10 16 0.00 0.03
11:25 pm 23:25 Cloudy 23 -5 18 -8 80 80 N 18 30 30.27 1025 10 16 0.00 0.00
11:56 pm 23:56 Cloudy 23 -5 18 -7.8 81 81 N 23 37 30.17 1022 10 16 0.00 0.00

Powered by AerisWeather